Regional Weather Roundup
Issued by NWS

Home | Current Version | Previous Version | Text Only | Print | Product List | Glossary On
Versions: 1 2 3 4 5 6 7 8 9 10 11 12 13 14 15 16 17 18 19 20 21 22 23 24 25 26 27
000
ASPQ40 PGUM 192110
RWRPQ
WEATHER ROUNDUP FOR THE MARIANAS AND MICRONESIA
NATIONAL WEATHER SERVICE TIYAN GU
700 AM CHST FRI APR 20 2018

GUZ001>004-192200-
MARIANA ISLANDS-

CITY           SKY/WX    TMP DP  RH WIND       PRES   REMARKS
GUAM AIRPORT   MOSUNNY   81  72  74 E12       29.90R
ANDERSEN AFB   MOSUNNY   79  70  73 E15       29.90R
ROTA AIRPORT   MOSUNNY   77  70  78 E8        29.90R
TINIAN AP      MOSUNNY   77  72  83 E6        29.89R
SAIPAN AP      PTSUNNY   79  72  78 E7        29.90R

$$

PMZ161-192200-
REPUBLIC OF PALAU-

CITY           SKY/WX    TMP DP  RH WIND       PRES   REMARKS
KOROR AP       MOCLDY    75  73  94 CALM      29.78R
KOROR WSO      MOCLDY    79  77  94 CALM      29.80R

$$

PMZ171>174-192200-
FEDERATED STATES OF MICRONESIA-

CITY           SKY/WX    TMP DP  RH WIND       PRES   REMARKS
YAP AIRPORT    NOT AVBL
CHUUK AP       CLOUDY    81  77  89 VRB6      29.79R
POHNPEI AP     CLOUDY    82  77  83 NE12      29.79R HX  91
POHNPEI WSO    CLOUDY    84  77  79 NE5       29.83R HX  94
KOSRAE AP      NOT AVBL

$$

PMZ181-192200-
REPUBLIC OF THE MARSHALL ISLANDS-

CITY           SKY/WX    TMP DP  RH WIND       PRES   REMARKS
KWAJALEIN AP   PTSUNNY   81  77  89 NE22G29   29.77S
MAJURO AP      LGT RAIN  81  75  83 SE18      29.80
MAJURO WSO     LGT RAIN  79  75  89 SE12      29.79R

$$





USA.gov is the U.S. government's official web portal to all federal, state and local government web resources and services.